GW3595 Weather Reports


time (UTC)temp
C
wind
direction
speed
KPH
gust
KPH
rain 1hr
cm
rain 24hr
cm
rain mn
cm
humidity
%
barometer
mb
20260507090205 18 210 4.8 9.7 0.00 0.00 0.00 55 1011.3
20260507085704 18 197 4.8 9.7 0.00 0.00 0.00 56 1011.3
20260507084704 18 297 4.8 9.7 0.00 0.00 0.00 58 1011.3
20260507084205 18 282 3.2 9.7 0.00 0.00 0.00 58 1011.2
20260507083704 18 266 3.2 11.3 0.00 0.00 0.00 59 1011.3
20260507082205 18 282 6.4 11.3 0.00 0.00 0.00 62 1011.2
20260507081705 18 255 6.4 11.3 0.00 0.00 0.00 62 1011.2
20260507081205 18 229 4.8 9.7 0.00 0.00 0.00 63 1011.1
20260507080721 17 294 4.8 9.7 0.00 0.00 0.00 64 1011.1
20260507075704 18 257 4.8 9.7 0.00 0.00 0.00 63 1011.1
20260507075204 17 246 3.2 4.8 0.00 0.00 0.00 67 1011.1
20260507074704 17 265 1.6 4.8 0.00 0.00 0.00 66 1011.1
20260507074205 16 202 1.6 6.4 0.00 0.00 0.00 69 1011.1
20260507072205 16 144 4.8 11.3 0.00 0.00 0.00 71 1010.9
20260507071705 16 138 6.4 9.7 0.00 0.00 0.00 72 1010.8
20260507071204 16 146 4.8 9.7 0.00 0.00 0.00 73 1010.8
20260507070704 16 126 4.8 9.7 0.00 0.00 0.00 73 1010.8
20260507070204 16 115 3.2 8.0 0.00 0.00 0.00 74 1010.8
20260507065705 15 119 3.2 6.4 0.00 0.00 0.00 75 1010.9
20260507065205 15 115 3.2 6.4 0.00 0.00 0.00 76 1010.9
20260507063704 13 0 3.2 4.8 0.00 0.00 0.00 80 1010.9
20260507063205 13 0 1.6 4.8 0.00 0.00 0.00 81 1010.9
20260507062704 13 0 1.6 4.8 0.00 0.00 0.00 81 1011.0
20260507062205 13 0 1.6 6.4 0.00 0.00 0.00 82 1010.9
20260507061704 13 0 1.6 6.4 0.00 0.00 0.00 82 1010.8
20260507061205 13 0 1.6 6.4 0.00 0.00 0.00 83 1010.8
20260507060705 13 0 3.2 6.4 0.00 0.00 0.00 83 1010.7
20260507060204 12 0 3.2 6.4 0.00 0.00 0.00 83 1010.7
20260507055705 12 0 3.2 4.8 0.00 0.00 0.00 84 1010.7
20260507055205 12 0 1.6 4.8 0.00 0.00 0.00 85 1010.7
20260507054205 12 0 1.6 4.8 0.00 0.00 0.00 85 1010.6
20260507053704 12 0 3.2 4.8 0.00 0.00 0.00 85 1010.6
20260507053205 12 0 3.2 4.8 0.00 0.00 0.00 86 1010.6
20260507052704 12 0 1.6 4.8 0.00 0.00 0.00 85 1010.5
20260507052205 12 0 1.6 4.8 0.00 0.00 0.00 85 1010.5
20260507051704 12 0 1.6 4.8 0.00 0.00 0.00 85 1010.2
20260507051205 12 0 1.6 4.8 0.00 0.00 0.00 84 1010.2
20260507050204 11 0 3.2 6.4 0.00 0.00 0.00 84 1010.2
20260507045705 11 0 3.2 6.4 0.00 0.00 0.00 85 1010.1
20260507045205 11 0 3.2 4.8 0.00 0.00 0.00 85 1010.1
20260507044704 11 0 3.2 4.8 0.00 0.00 0.00 86 1010.0
20260507044205 11 0 3.2 4.8 0.00 0.00 0.00 86 1010.0
20260507043704 11 0 1.6 3.2 0.00 0.00 0.00 87 1010.0
20260507043205 11 0 0.0 3.2 0.00 0.00 0.00 87 1010.0
20260507042705 11 0 0.0 6.4 0.00 0.00 0.00 87 1010.0
20260507041705 11 0 3.2 6.4 0.00 0.00 0.00 87 1009.9
20260507041204 11 0 3.2 6.4 0.00 0.00 0.00 88 1009.9
20260507040704 11 0 1.6 4.8 0.00 0.00 0.00 89 1009.8
20260507035705 11 0 0.0 6.4 0.00 0.00 0.00 89 1009.8
20260507035205 11 0 1.6 6.4 0.00 0.00 0.00 88 1009.7
20260507034704 11 0 3.2 6.4 0.00 0.00 0.00 88 1009.7
20260507034205 11 0 1.6 4.8 0.00 0.00 0.00 89 1009.7
20260507032205 11 0 1.6 3.2 0.00 0.00 0.00 89 1009.4
20260507031705 11 0 1.6 3.2 0.00 0.00 0.00 89 1009.4
20260507030705 11 0 0.0 3.2 0.00 0.00 0.00 89 1009.4
20260507030205 11 0 0.0 3.2 0.00 0.00 0.00 89 1009.4
20260507025705 11 0 1.6 3.2 0.00 0.00 0.00 88 1009.4
20260507025204 11 0 0.0 1.6 0.00 0.00 0.00 88 1009.4
20260507024204 11 0 0.0 1.6 0.00 0.00 0.00 88 1009.3
20260507023204 11 0 0.0 3.2 0.00 0.00 0.00 88 1009.2
20260507022705 11 0 0.0 3.2 0.00 0.00 0.00 88 1009.3
20260507022205 11 0 0.0 3.2 0.00 0.00 0.00 88 1009.4
20260507021704 11 0 0.0 3.2 0.00 0.00 0.00 88 1009.3
20260507021205 11 0 0.0 3.2 0.00 0.00 0.00 88 1009.3
20260507020722 11 0 0.0 1.6 0.00 0.00 0.00 88 1009.3
20260507020205 11 0 0.0 1.6 0.00 0.00 0.00 88 1009.2
20260507015204 11 0 0.0 3.2 0.00 0.00 0.00 88 1009.3
20260507014705 11 0 0.0 3.2 0.00 0.00 0.00 88 1009.3
20260507014204 11 0 1.6 3.2 0.00 0.00 0.00 88 1009.3
20260507013705 11 0 1.6 4.8 0.00 0.00 0.00 88 1009.3
20260507013204 11 0 1.6 4.8 0.00 0.00 0.00 88 1009.2
20260507012705 11 0 1.6 4.8 0.00 0.00 0.00 88 1009.2
20260507012205 11 0 0.0 3.2 0.00 0.00 0.00 88 1009.2
20260507011212 11 0 0.0 4.8 0.00 0.00 0.00 87 1009.1
20260507010704 11 0 0.0 4.8 0.00 0.00 0.00 87 1009.1
20260507010204 11 0 1.6 4.8 0.00 0.00 0.00 87 1009.1
20260507005705 11 0 1.6 3.2 0.00 0.00 0.00 87 1009.0
20260507005204 11 0 0.0 3.2 0.00 0.00 0.00 87 1009.0
20260507004705 12 0 0.0 3.2 0.00 0.00 0.00 86 1009.0
20260507004204 12 0 1.6 4.8 0.00 0.00 0.00 86 1008.9
20260507003705 12 0 1.6 4.8 0.00 0.00 0.00 86 1008.9
20260507003205 12 0 1.6 4.8 0.00 0.00 0.00 86 1008.9
20260507002704 12 0 1.6 4.8 0.00 0.00 0.00 87 1009.0
20260507002205 12 0 0.0 1.6 0.00 0.00 0.00 87 1008.9
20260507001704 12 0 0.0 1.6 0.00 0.00 0.00 87 1008.8
20260507001205 12 0 0.0 1.6 0.00 0.00 0.00 87 1008.9
20260507000705 12 0 0.0 1.6 0.00 0.00 0.00 87 1008.9
20260507000205 12 0 0.0 3.2 0.00 0.00 0.00 86 1008.9
20260506235705 12 0 0.0 3.2 0.00 0.00 0.00 86 1008.9
20260506235204 12 0 1.6 3.2 0.00 0.00 0.00 85 1008.9
20260506234704 12 0 0.0 3.2 0.00 0.00 0.00 85 1008.8
20260506233704 12 126 1.6 3.2 0.00 0.00 0.00 84 1008.8
20260506233204 13 111 1.6 3.2 0.00 0.00 0.00 84 1008.9
20260506232205 13 244 1.6 8.0 0.00 0.00 0.00 83 1008.7
20260506231704 13 234 3.2 8.0 0.00 0.00 0.00 83 1008.8
20260506231220 13 211 4.8 8.0 0.00 0.00 0.00 83 1008.6
20260506230704 13 202 4.8 6.4 0.00 0.00 0.00 83 1008.8
20260506230205 13 209 3.2 6.4 0.00 0.00 0.00 83 1008.9
20260506225704 13 189 1.6 6.4 0.00 0.00 0.00 83 1008.8
20260506225205 13 150 1.6 6.4 0.00 0.00 0.00 84 1008.8
20260506224705 13 153 1.6 6.4 0.00 0.00 0.00 84 1008.8
20260506224205 13 191 1.6 1.6 0.00 0.00 0.00 84 1008.7
20260506223705 13 116 0.0 3.2 0.00 0.00 0.00 84 1008.6
20260506223204 13 114 0.0 3.2 0.00 0.00 0.00 83 1008.6
20260506222705 13 117 1.6 1.6 0.00 0.00 0.00 83 1008.6
20260506221705 13 112 0.0 1.6 0.00 0.00 0.00 83 1008.7
20260506221205 13 109 0.0 1.6 0.00 0.00 0.00 83 1008.7
20260506220705 13 110 0.0 0.0 0.00 0.00 0.00 83 1008.8
20260506220205 13 108 0.0 1.6 0.00 0.00 0.00 84 1008.8
20260506215704 13 111 0.0 1.6 0.00 0.00 0.00 83 1008.8
20260506215205 13 110 0.0 1.6 0.00 0.00 0.00 84 1008.7
20260506214704 13 112 0.0 1.6 0.00 0.00 0.00 84 1008.8
20260506214205 12 116 0.0 1.6 0.00 0.00 0.00 84 1008.8
20260506213704 13 115 0.0 3.2 0.00 0.00 0.00 84 1008.8
20260506213205 13 119 1.6 3.2 0.00 0.00 0.00 84 1008.7
20260506212704 13 119 1.6 1.6 0.00 0.00 0.00 84 1008.6
20260506212205 13 106 0.0 3.2 0.00 0.00 0.00 84 1008.6
20260506211705 13 107 0.0 3.2 0.00 0.00 0.00 84 1008.6
20260506211205 12 109 0.0 3.2 0.00 0.00 0.00 84 1008.5
20260506210204 13 118 0.0 1.6 0.00 0.00 0.00 83 1008.4
20260506205705 13 119 0.0 6.4 0.00 0.00 0.00 82 1008.4
20260506205204 13 116 1.6 6.4 0.00 0.00 0.00 82 1008.5
20260506204704 13 117 1.6 6.4 0.00 0.00 0.00 81 1008.4
20260506204205 13 116 1.6 4.8 0.00 0.00 0.00 80 1008.5
20260506203704 14 110 0.0 4.8 0.00 0.00 0.00 79 1008.5
20260506203204 14 207 1.6 4.8 0.00 0.00 0.00 78 1008.5
20260506202704 15 190 3.2 4.8 0.00 0.00 0.00 77 1008.4
20260506202205 15 205 1.6 3.2 0.00 0.00 0.00 78 1008.3
20260506201704 14 200 1.6 3.2 0.00 0.00 0.00 78 1008.2
20260506201205 14 0 1.6 3.2 0.00 0.00 0.00 79 1008.2
20260506200704 14 0 1.6 3.2 0.00 0.00 0.00 79 1008.2
20260506200205 15 198 1.6 3.2 0.00 0.00 0.00 78 1008.3
20260506195204 15 187 1.6 4.8 0.00 0.00 0.00 78 1008.3
20260506194705 15 187 1.6 4.8 0.00 0.00 0.00 78 1008.3
20260506194205 15 186 0.0 3.2 0.00 0.00 0.00 78 1008.3
20260506193705 15 203 0.0 3.2 0.00 0.00 0.00 78 1008.2
20260506193204 15 205 0.0 3.2 0.00 0.00 0.00 79 1008.2
20260506192705 14 211 0.0 3.2 0.00 0.00 0.00 79 1008.1
20260506192204 14 205 0.0 3.2 0.00 0.00 0.00 79 1008.1
20260506191704 15 295 0.0 3.2 0.00 0.00 0.00 78 1008.1
20260506191205 15 296 0.0 1.6 0.00 0.00 0.00 78 1008.2
20260506190704 15 270 0.0 4.8 0.00 0.00 0.00 76 1008.0
20260506190205 15 272 0.0 4.8 0.00 0.00 0.00 75 1008.0
20260506185205 16 211 1.6 8.0 0.00 0.00 0.00 74 1007.6
20260506184704 16 0 1.6 8.0 0.00 0.00 0.00 74 1007.5
20260506184205 16 0 3.2 8.0 0.00 0.00 0.00 74 1007.4
20260506183205 16 244 3.2 8.0 0.00 0.00 0.00 74 1007.3
20260506182705 16 253 3.2 9.7 0.00 0.00 0.00 73 1007.1
20260506181705 16 250 3.2 11.3 0.00 0.00 0.00 72 1007.0
20260506181205 16 217 4.8 11.3 0.00 0.00 0.00 71 1006.9
20260506180705 16 196 4.8 11.3 0.00 0.00 0.00 71 1006.9
20260506175705 16 212 4.8 11.3 0.00 0.00 0.00 70 1007.0
20260506175204 16 167 4.8 11.3 0.00 0.00 0.00 70 1006.9
20260506174704 17 217 4.8 11.3 0.00 0.00 0.00 70 1006.9
20260506174205 17 197 4.8 11.3 0.00 0.00 0.00 70 1006.9
20260506173704 17 213 4.8 11.3 0.00 0.00 0.00 70 1006.8
20260506173205 17 225 4.8 14.5 0.00 0.00 0.00 69 1006.8
20260506172704 17 235 4.8 14.5 0.00 0.00 0.00 69 1006.8
20260506172205 17 232 4.8 14.5 0.00 0.00 0.00 69 1006.9
20260506171705 17 201 4.8 11.3 0.00 0.00 0.00 68 1006.7
20260506171204 17 180 4.8 14.5 0.00 0.00 0.00 68 1006.7
20260506170704 17 192 6.4 14.5 0.00 0.00 0.00 68 1006.7
20260506170205 17 240 6.4 14.5 0.00 0.00 0.00 67 1006.7
20260506165705 17 189 6.4 14.5 0.00 0.00 0.00 67 1006.7
20260506165205 17 238 6.4 14.5 0.00 0.00 0.00 67 1006.8
20260506164205 17 242 6.4 12.9 0.00 0.00 0.00 66 1006.9
20260506163705 17 235 6.4 12.9 0.00 0.00 0.00 66 1006.9
20260506163204 18 0 6.4 19.3 0.00 0.00 0.00 66 1006.9
20260506162705 18 242 6.4 19.3 0.00 0.00 0.00 65 1006.9
20260506162216 18 143 8.0 20.9 0.00 0.00 0.00 65 1007.0
20260506161707 18 208 9.7 20.9 0.00 0.00 0.00 65 1007.1
20260506161207 18 240 9.7 20.9 0.00 0.00 0.00 65 1007.1
20260506160704 18 240 8.0 17.7 0.00 0.00 0.00 64 1007.0
20260506160228 18 183 8.0 17.7 0.00 0.00 0.00 63 1006.9
20260506155705 19 173 6.4 16.1 0.00 0.00 0.00 62 1007.0
20260506155205 20 0 4.8 16.1 0.00 0.00 0.00 61 1007.0
20260506154705 20 0 6.4 16.1 0.00 0.00 0.00 60 1007.1
20260506153705 19 218 6.4 12.9 0.00 0.00 0.00 62 1007.1
20260506153205 18 217 6.4 12.9 0.00 0.00 0.00 63 1007.1
20260506152704 18 198 6.4 12.9 0.00 0.00 0.00 63 1007.2
20260506151704 18 236 6.4 19.3 0.00 0.00 0.00 63 1007.2
20260506151205 18 188 6.4 24.1 0.00 0.00 0.00 63 1007.2
20260506150705 18 225 8.0 24.1 0.00 0.00 0.00 62 1007.3
20260506150205 18 183 8.0 24.1 0.00 0.00 0.00 62 1007.2
20260506145705 18 180 8.0 20.9 0.00 0.00 0.00 62 1007.3
20260506145204 19 153 8.0 20.9 0.00 0.00 0.00 61 1007.2
20260506144704 19 233 8.0 22.5 0.00 0.00 0.00 61 1007.1
20260506144204 19 209 11.3 22.5 0.00 0.00 0.00 60 1007.2
20260506143205 19 214 8.0 17.7 0.00 0.00 0.00 59 1007.1
20260506142205 19 178 8.0 20.9 0.00 0.00 0.00 59 1007.1
20260506140705 20 215 8.0 19.3 0.00 0.00 0.00 58 1007.1
20260506140204 20 211 8.0 20.9 0.00 0.00 0.00 57 1007.0
20260506135204 20 195 8.0 20.9 0.00 0.00 0.00 56 1007.0
20260506134704 20 196 8.0 16.1 0.00 0.00 0.00 55 1007.0
20260506134205 20 146 6.4 16.1 0.00 0.00 0.00 55 1007.1
20260506133704 21 225 6.4 17.7 0.00 0.00 0.00 55 1007.1
20260506132704 20 215 9.7 19.3 0.00 0.00 0.00 55 1007.2
20260506132205 20 171 8.0 19.3 0.00 0.00 0.00 54 1007.2
20260506131204 21 184 8.0 19.3 0.00 0.00 0.00 53 1007.3
20260506130704 21 200 8.0 19.3 0.00 0.00 0.00 52 1007.1
20260506125704 21 243 6.4 16.1 0.00 0.00 0.00 52 1007.2
20260506125205 21 201 6.4 16.1 0.00 0.00 0.00 52 1007.3
20260506124704 21 197 6.4 17.7 0.00 0.00 0.00 51 1007.3
20260506124205 21 247 8.0 17.7 0.00 0.00 0.00 50 1007.4
20260506123704 21 204 8.0 17.7 0.00 0.00 0.00 50 1007.4
20260506123205 21 254 8.0 17.7 0.00 0.00 0.00 50 1007.5
20260506122704 21 215 8.0 16.1 0.00 0.00 0.00 50 1007.4
20260506122205 21 180 6.4 16.1 0.00 0.00 0.00 50 1007.5
20260506121705 21 249 6.4 16.1 0.00 0.00 0.00 49 1007.4
20260506121205 21 191 6.4 16.1 0.00 0.00 0.00 52 1007.5
20260506120704 21 213 8.0 22.5 0.00 0.00 0.00 52 1007.5
20260506120222 21 271 8.0 22.5 0.00 0.00 0.00 52 1007.5
20260506115704 21 229 8.0 22.5 0.00 0.00 0.00 51 1007.6
20260506115204 21 275 6.4 17.7 0.00 0.00 0.00 49 1007.6
20260506114704 21 198 8.0 17.7 0.00 0.00 0.00 50 1007.7
20260506114227 21 253 8.0 17.7 0.00 0.00 0.00 48 1007.7
20260506113205 21 267 6.4 22.5 0.00 0.00 0.00 45 1007.9
20260506112704 22 282 8.0 22.5 0.00 0.00 0.00 45 1008.0
20260506111704 21 221 9.7 24.1 0.00 0.00 0.00 46 1008.1
20260506111205 21 263 9.7 17.7 0.00 0.00 0.00 47 1008.1
20260506110705 20 227 8.0 17.7 0.00 0.00 0.00 49 1008.0
20260506110205 20 242 8.0 17.7 0.00 0.00 0.00 50 1008.2
20260506105704 20 279 8.0 16.1 0.00 0.00 0.00 53 1008.2
20260506105205 20 242 6.4 19.3 0.00 0.00 0.00 54 1008.3
20260506104704 20 184 6.4 19.3 0.00 0.00 0.00 53 1008.3
20260506104205 20 242 9.7 19.3 0.00 0.00 0.00 52 1008.4
20260506103704 20 262 8.0 19.3 0.00 0.00 0.00 52 1008.4
20260506103205 20 236 6.4 17.7 0.00 0.00 0.00 51 1008.4
20260506102205 20 215 4.8 14.5 0.00 0.00 0.00 47 1008.4
20260506100704 20 248 6.4 14.5 0.00 0.00 0.00 48 1008.4
20260506100223 20 257 6.4 16.1 0.00 0.00 0.00 48 1008.4
20260506095705 20 235 8.0 16.1 0.00 0.00 0.00 47 1008.5
20260506095205 20 220 8.0 19.3 0.00 0.00 0.00 46 1008.4
20260506094204 22 226 8.0 19.3 0.00 0.00 0.00 44 1008.4
20260506093705 21 247 8.0 19.3 0.00 0.00 0.00 45 1008.4
20260506093204 21 192 8.0 17.7 0.00 0.00 0.00 45 1008.4
20260506092205 21 222 8.0 22.5 0.00 0.00 0.00 45 1008.3
20260506091704 21 241 8.0 22.5 0.00 0.00 0.00 45 1008.3
20260506091204 21 238 6.4 19.3 0.00 0.00 0.00 45 1008.3
20260506090704 21 152 8.0 19.3 0.00 0.00 0.00 47 1008.2